Sallisaw, OK

1:17 AM CST on December 18, 2017 (GMT -0600)
Sallisaw Municipal

Weather History for KJSV - March, 2014

Change the Weather History Date:

Monday, March 3, 2014

  Actual Average Record
Temperature  
Mean Temperature 20 °F -  
Max Temperature 30 °F 60 °F 79 °F (1955)
Min Temperature 10 °F 39 °F 8 °F (1960)
Degree Days  
Heating Degree Days 45    
Moisture  
Dew Point 8 °F    
Average Humidity 63    
Maximum Humidity 79    
Minimum Humidity 43    
Precipitation  
Precipitation 0.00 in - - ()
Sea Level Pressure  
Sea Level Pressure 30.42 in    
Wind  
Wind Speed 8 mph (NNW)    
Max Wind Speed 16 mph    
Max Gust Speed 22 mph    
Visibility 10 miles    
Events Snow    
Averages and records for this station are not official NWS values.
T = Trace of Precipitation, MM = Missing Value Source: NWS Daily Summary

Daily Weather History Graph

Daily Weather History Graph

Search for Another Location

Airport or City:

Trip Planner

Search our weather history database for the weather conditions in past years. The results will help you decide how hot, cold, wet, or windy it might be!

Date:

Astronomy

Mar. 03, 2014 Rise Set
Actual Time 6:46 AM CST 6:16 PM CST
Civil Twilight 6:20 AM CST 6:41 PM CST
Nautical Twilight 5:51 AM CST 7:11 PM CST
Astronomical Twilight 5:21 AM CST 7:40 PM CST
Moon 8:01 AM CST (3/3) 9:12 PM CST (3/3)
Length of Visible Light 12h 21m
Length of Day
11h 30m
Waxing Crescent, 8% of the Moon is Illuminated
Mar 3
Waxing Crescent
Mar 8
First Quarter
Mar 16
Full
Mar 23
Last Quarter
Mar 30
New

Hourly Weather History & Observations

Time (CST) Temp. Windchill Dew Point Humidity Pressure Visibility Wind Dir Wind Speed Gust Speed Precip Events Conditions
12:15 AM 14.0 °F -1.4 °F 8.6 °F 79% 30.35 in 7.0 mi North 15.0 mph 21.9 mph N/A Snow Light Snow
12:35 AM 14.0 °F 1.2 °F 8.6 °F 79% 30.37 in 10.0 mi North 10.4 mph 17.3 mph N/A   Overcast
12:55 AM 14.0 °F 0.5 °F 8.6 °F 79% 30.38 in 10.0 mi North 11.5 mph 19.6 mph N/A   Overcast
1:15 AM 14.0 °F -2.0 °F 6.8 °F 73% 30.39 in 10.0 mi NNW 16.1 mph - N/A   Overcast
1:35 AM 14.0 °F -0.2 °F 5.0 °F 67% 30.40 in 10.0 mi North 12.7 mph 20.7 mph N/A   Mostly Cloudy
1:55 AM 14.0 °F 1.2 °F 6.8 °F 73% 30.42 in 10.0 mi North 10.4 mph 18.4 mph N/A   Mostly Cloudy
2:15 AM 12.2 °F -3.1 °F 5.0 °F 73% 30.43 in 7.0 mi NNW 13.8 mph 21.9 mph N/A   Overcast
2:35 AM 12.2 °F -2.5 °F 5.0 °F 73% 30.43 in 7.0 mi North 12.7 mph 18.4 mph N/A Snow Light Snow
2:55 AM 12.2 °F -3.7 °F 5.0 °F 73% 30.43 in 3.0 mi North 15.0 mph 21.9 mph N/A Snow Light Snow
3:15 AM 12.2 °F 0.7 °F 5.0 °F 73% 30.43 in 3.0 mi North 8.1 mph 18.4 mph N/A Snow Light Snow
3:35 AM 12.2 °F 1.7 °F 5.0 °F 73% 30.44 in 5.0 mi North 6.9 mph - N/A Snow Light Snow
3:55 AM 12.2 °F -2.5 °F 5.0 °F 73% 30.44 in 4.0 mi North 12.7 mph 18.4 mph N/A Snow Light Snow
4:15 AM 12.2 °F 1.7 °F 3.2 °F 67% 30.44 in 10.0 mi North 6.9 mph - N/A   Overcast
4:35 AM 12.2 °F -1.8 °F 3.2 °F 67% 30.44 in 10.0 mi North 11.5 mph 18.4 mph N/A   Overcast
4:55 AM 12.2 °F -1.0 °F 3.2 °F 67% 30.45 in 10.0 mi North 10.4 mph 17.3 mph N/A   Overcast
5:15 AM 12.2 °F -1.0 °F 3.2 °F 67% 30.45 in 10.0 mi North 10.4 mph 20.7 mph N/A   Overcast
5:35 AM 10.4 °F -3.3 °F 3.2 °F 73% 30.45 in 10.0 mi North 10.4 mph 18.4 mph N/A   Mostly Cloudy
5:50 AM 10.4 °F 0.8 °F 3.2 °F 73% 30.45 in 10.0 mi North 5.8 mph - N/A   Scattered Clouds
6:15 AM 10.4 °F -0.4 °F 3.2 °F 73% 30.45 in 10.0 mi North 6.9 mph - N/A   Clear
6:35 AM 10.4 °F 2.2 °F 1.4 °F 67% 30.45 in 10.0 mi North 4.6 mph - N/A   Clear
6:55 AM 10.4 °F 2.2 °F 1.4 °F 67% 30.45 in 10.0 mi North 4.6 mph - N/A   Clear
7:15 AM 10.4 °F -0.4 °F 1.4 °F 67% 30.44 in 10.0 mi NE 6.9 mph - N/A   Clear
7:35 AM 12.2 °F 6.1 °F 1.4 °F 62% 30.45 in 10.0 mi NNE 3.5 mph - N/A   Clear
7:55 AM 12.2 °F 4.3 °F 3.2 °F 67% 30.46 in 10.0 mi North 4.6 mph - N/A   Clear
8:15 AM 12.2 °F - 3.2 °F 67% 30.47 in 10.0 mi Calm Calm - N/A   Clear
8:35 AM 14.0 °F - 3.2 °F 62% 30.47 in 10.0 mi Calm Calm - N/A   Clear
8:55 AM 14.0 °F - 3.2 °F 62% 30.49 in 10.0 mi Calm Calm - N/A   Clear
9:15 AM 14.0 °F 2.9 °F 5.0 °F 67% 30.50 in 10.0 mi WNW 8.1 mph - N/A   Clear
9:35 AM 15.8 °F 7.2 °F 5.0 °F 62% 30.50 in 10.0 mi NW 5.8 mph - N/A   Clear
9:55 AM 17.6 °F 6.4 °F 5.0 °F 58% 30.50 in 10.0 mi NW 9.2 mph - N/A   Clear
10:15 AM 17.6 °F 9.3 °F 5.0 °F 58% 30.50 in 10.0 mi WNW 5.8 mph - N/A   Clear
10:30 AM 17.6 °F 9.3 °F 5.0 °F 58% 30.52 in 10.0 mi NW 5.8 mph - N/A   Clear
10:55 AM 19.4 °F 11.5 °F 8.6 °F 63% 30.50 in 10.0 mi NNW 5.8 mph - N/A   Clear
11:15 AM 21.2 °F 10.9 °F 8.6 °F 58% 30.50 in 10.0 mi NNW 9.2 mph - N/A   Clear
11:35 AM 21.2 °F 11.7 °F 8.6 °F 58% 30.50 in 10.0 mi NNW 8.1 mph - N/A   Clear
11:55 AM 21.2 °F 14.9 °F 8.6 °F 58% 30.50 in 10.0 mi North 4.6 mph - N/A   Clear
12:15 PM 23.0 °F 18.4 °F 8.6 °F 54% 30.48 in 10.0 mi NNW 3.5 mph - N/A   Clear
12:35 PM 23.0 °F 17.0 °F 8.6 °F 54% 30.48 in 10.0 mi NNW 4.6 mph - N/A   Clear
12:55 PM 26.6 °F 21.2 °F 8.6 °F 47% 30.46 in 10.0 mi North 4.6 mph - N/A   Clear
1:15 PM 26.6 °F 20.0 °F 10.4 °F 51% 30.44 in 10.0 mi NNW 5.8 mph - N/A   Clear
1:35 PM 26.6 °F - 8.6 °F 47% 30.43 in 10.0 mi Calm Calm - N/A   Clear
1:55 PM 26.6 °F - 8.6 °F 47% 30.42 in 10.0 mi Calm Calm - N/A   Clear
2:15 PM 26.6 °F 22.6 °F 10.4 °F 51% 30.41 in 10.0 mi WNW 3.5 mph - N/A   Clear
2:35 PM 28.4 °F - 8.6 °F 43% 30.40 in 10.0 mi Calm Calm - N/A   Clear
2:55 PM 28.4 °F 24.6 °F 10.4 °F 47% 30.39 in 10.0 mi NE 3.5 mph - N/A   Clear
3:10 PM 28.4 °F - 10.4 °F 47% 30.38 in 10.0 mi Calm Calm - N/A   Clear
3:35 PM 30.2 °F 24.3 °F 10.4 °F 44% 30.38 in 10.0 mi West 5.8 mph - N/A   Clear
3:55 PM 30.2 °F 24.3 °F 12.2 °F 47% 30.39 in 10.0 mi West 5.8 mph - N/A   Clear
4:15 PM 30.2 °F 22.6 °F 12.2 °F 47% 30.39 in 10.0 mi West 8.1 mph - N/A   Clear
4:35 PM 28.4 °F 24.6 °F 12.2 °F 51% 30.39 in 10.0 mi WSW 3.5 mph - N/A   Clear
4:55 PM 28.4 °F 23.3 °F 12.2 °F 51% 30.37 in 10.0 mi WSW 4.6 mph - N/A   Clear
5:15 PM 28.4 °F - 12.2 °F 51% 30.34 in 10.0 mi Calm Calm - N/A   Clear
5:35 PM 28.4 °F 24.6 °F 12.2 °F 51% 30.35 in 10.0 mi West 3.5 mph - N/A   Clear
5:55 PM 26.6 °F - 12.2 °F 55% 30.35 in 10.0 mi Calm Calm - N/A   Clear
6:15 PM 26.6 °F 22.6 °F 14.0 °F 59% 30.35 in 10.0 mi WSW 3.5 mph - N/A   Clear
6:35 PM 26.6 °F 22.6 °F 12.2 °F 55% 30.35 in 10.0 mi WNW 3.5 mph - N/A   Clear
6:55 PM 24.8 °F 17.9 °F 14.0 °F 64% 30.36 in 10.0 mi West 5.8 mph - N/A   Clear
7:15 PM 24.8 °F 20.5 °F 14.0 °F 64% 30.36 in 10.0 mi West 3.5 mph - N/A   Clear
7:35 PM 23.0 °F 17.0 °F 14.0 °F 68% 30.37 in 10.0 mi WNW 4.6 mph - N/A   Clear
7:55 PM 23.0 °F 17.0 °F 14.0 °F 68% 30.37 in 10.0 mi West 4.6 mph - N/A   Clear
8:15 PM 23.0 °F 18.4 °F 12.2 °F 63% 30.37 in 10.0 mi West 3.5 mph - N/A   Clear
8:35 PM 21.2 °F 16.4 °F 12.2 °F 68% 30.38 in 10.0 mi WSW 3.5 mph - N/A   Clear
8:55 PM 21.2 °F 14.9 °F 14.0 °F 74% 30.39 in 10.0 mi WSW 4.6 mph - N/A   Clear
9:15 PM 21.2 °F 16.4 °F 12.2 °F 68% 30.38 in 10.0 mi West 3.5 mph - N/A   Clear
9:35 PM 21.2 °F 16.4 °F 12.2 °F 68% 30.39 in 10.0 mi WNW 3.5 mph - N/A   Clear
9:55 PM 21.2 °F - 12.2 °F 68% 30.39 in 10.0 mi Calm Calm - N/A   Clear
10:15 PM 21.2 °F - 10.4 °F 63% 30.38 in 10.0 mi Calm Calm - N/A   Clear
10:35 PM 21.2 °F - 10.4 °F 63% 30.35 in 10.0 mi Calm Calm - N/A   Clear
10:55 PM 19.4 °F 14.3 °F 12.2 °F 74% 30.34 in 10.0 mi East 3.5 mph - N/A   Clear
11:15 PM 21.2 °F - 12.2 °F 68% 30.34 in 10.0 mi Calm Calm - N/A   Clear
11:35 PM 21.2 °F - 12.2 °F 68% 30.33 in 10.0 mi Calm Calm - N/A   Clear
11:55 PM 21.2 °F - 12.2 °F 68% 30.33 in 10.0 mi Calm Calm - N/A   Clear